sat.trackr.live / text

‹ back to catalog

STARLINK-1759

NORAD 46340 · 2020-062R

PAYLOAD ACTIVE UNKNOWN

§ Identity

Operator
Country
US
Launch date
2020-09-03
Launch site
AFETR
Launch vehicle
Mass (kg)
RCS (m²)

Purposes: comms

External: N2YO · Heavens-Above · Gunter

§ Orbital elements

Epoch: 2026-07-19T18:10:18.834816Z

Period
87.77 min
Inclination
52.9962°
Eccentricity
0.0011414
Mean motion
16.40705649 rev/d
Perigee alt
156.5 km
Apogee alt
171.4 km
Semi-major
6,542.1 km
B*
5.8500e-4
RAAN
28.0761°
Arg perigee
287.6003°
Mean anomaly
72.3796°
Rev number
32,581

§ Raw data

STARLINK-17591 46340U 20062R   26200.75716244  .09062225  12442-4  58500-3 0  99972 46340  52.9962  28.0761 0011414 287.6003  72.3796 16.40705649325818

JSON: /api/v1/satellites/46340 · /tle

For live sub-satellite position, see the globe view (requires WebGL).

§ Visibility from observer

Set your observer location to see the next 7 days of passes ≥ 10°. The values pass through the URL so the page stays shareable.

No JS? Fill the form by hand. The geolocation button needs JavaScript.